When you browse on this site, cookies collect data to enhance your experience and personalize the content and advertising you see.
Visit our Privacy Policy to learn more. By continuing to use the site, you agree to this use of cookies and data.

Meteo pe oră la Saint-Gratien

Astăzi, 5 Iulie, Duminică

Timp Temperatura Precipitaţii Vânt Presiune Umiditate
00:00 +20°C° 0 mm 5 m/s 758 mmHg 81%
01:00 +20°C° 0 mm 5 m/s 758 mmHg 81%
02:00 +20°C° 0 mm 5 m/s 758 mmHg 82%
03:00 +20°C° 0 mm 5 m/s 758 mmHg 82%
04:00 +20°C° 0 mm 5 m/s 758 mmHg 81%
05:00 +20°C° 0 mm 5 m/s 758 mmHg 81%
06:00 +20°C° 0 mm 5 m/s 758 mmHg 77%
07:00 +20°C° 0 mm 5 m/s 758 mmHg 75%
08:00 +21°C° 0 mm 6 m/s 758 mmHg 74%
09:00 +21°C° 0 mm 6 m/s 758 mmHg 72%
10:00 +21°C° 0 mm 6 m/s 758 mmHg 72%
11:00 +21°C° 0 mm 6 m/s 758 mmHg 71%
12:00 +22°C° 0 mm 6 m/s 758 mmHg 71%
13:00 +22°C° 0 mm 6 m/s 758 mmHg 70%
14:00 +22°C° 0 mm 6 m/s 758 mmHg 69%
15:00 +23°C° 0 mm 5 m/s 758 mmHg 68%
16:00 +22°C° 0.1 mm 5 m/s 758 mmHg 72%
17:00 +21°C° 0.1 mm 4 m/s 758 mmHg 75%
18:00 +21°C° 0.1 mm 4 m/s 758 mmHg 79%
19:00 +19°C° 0.1 mm 4 m/s 758 mmHg 78%
20:00 +18°C° 0.1 mm 4 m/s 758 mmHg 78%
21:00 +17°C° 0.1 mm 4 m/s 759 mmHg 78%
22:00 +15°C° 0 mm 4 m/s 759 mmHg 78%
23:00 +13°C° 0 mm 4 m/s 759 mmHg 77%

Mâine, 6 Iulie, Luni

Timp Temperatura Precipitaţii Vânt Presiune Umiditate
00:00 +12°C° 0 mm 4 m/s 759 mmHg 77%
01:00 +12°C° 0 mm 4 m/s 759 mmHg 78%
02:00 +12°C° 0 mm 4 m/s 759 mmHg 78%
03:00 +11°C° 0 mm 3 m/s 760 mmHg 78%
04:00 +12°C° 0 mm 4 m/s 760 mmHg 76%
05:00 +13°C° 0 mm 4 m/s 760 mmHg 74%
06:00 +13°C° 0 mm 4 m/s 760 mmHg 72%
07:00 +14°C° 0 mm 4 m/s 760 mmHg 68%
08:00 +15°C° 0 mm 5 m/s 761 mmHg 64%
09:00 +16°C° 0 mm 5 m/s 761 mmHg 61%
10:00 +17°C° 0 mm 5 m/s 761 mmHg 57%
11:00 +19°C° 0 mm 6 m/s 761 mmHg 53%
12:00 +20°C° 0 mm 6 m/s 761 mmHg 49%
13:00 +20°C° 0 mm 6 m/s 761 mmHg 49%
14:00 +20°C° 0 mm 6 m/s 761 mmHg 48%
15:00 +21°C° 0 mm 6 m/s 761 mmHg 48%
16:00 +20°C° 0 mm 5 m/s 762 mmHg 51%
17:00 +19°C° 0 mm 5 m/s 762 mmHg 54%
18:00 +18°C° 0 mm 4 m/s 762 mmHg 57%
19:00 +17°C° 0 mm 3 m/s 762 mmHg 63%
20:00 +16°C° 0 mm 3 m/s 763 mmHg 69%
21:00 +15°C° 0 mm 2 m/s 763 mmHg 74%
22:00 +14°C° 0 mm 2 m/s 763 mmHg 77%
23:00 +14°C° 0 mm 2 m/s 763 mmHg 79%

Poimâine, 7 Iulie, Marţi

Timp Temperatura Precipitaţii Vânt Presiune Umiditate
00:00 +13°C° 0 mm 1 m/s 763 mmHg 82%
01:00 +13°C° 0 mm 1 m/s 763 mmHg 82%
02:00 +12°C° 0 mm 1 m/s 763 mmHg 83%
03:00 +11°C° 0 mm 0 m/s 763 mmHg 84%
04:00 +12°C° 0 mm 0 m/s 763 mmHg 82%
05:00 +13°C° 0 mm 0 m/s 763 mmHg 79%
06:00 +14°C° 0 mm 0 m/s 763 mmHg 77%
07:00 +16°C° 0 mm 1 m/s 763 mmHg 70%
08:00 +19°C° 0 mm 1 m/s 763 mmHg 62%
09:00 +21°C° 0 mm 1 m/s 763 mmHg 55%
10:00 +21°C° 0 mm 2 m/s 763 mmHg 50%
11:00 +23°C° 0 mm 2 m/s 762 mmHg 46%
12:00 +24°C° 0 mm 2 m/s 762 mmHg 41%
13:00 +25°C° 0 mm 2 m/s 762 mmHg 41%
14:00 +25°C° 0 mm 2 m/s 761 mmHg 41%
15:00 +26°C° 0 mm 3 m/s 761 mmHg 41%
16:00 +25°C° 0 mm 3 m/s 761 mmHg 45%
17:00 +24°C° 0 mm 3 m/s 761 mmHg 48%
18:00 +24°C° 0 mm 2 m/s 760 mmHg 52%
19:00 +21°C° 0 mm 2 m/s 760 mmHg 58%
20:00 +19°C° 0 mm 2 m/s 761 mmHg 64%
21:00 +18°C° 0 mm 2 m/s 761 mmHg 70%
22:00 +18°C° 0 mm 1 m/s 761 mmHg 72%
23:00 +16°C° 0 mm 1 m/s 760 mmHg 74%

8 Iulie, Miercuri

Timp Temperatura Precipitaţii Vânt Presiune Umiditate
00:00 +16°C° 0 mm 1 m/s 760 mmHg 76%
01:00 +15°C° 0 mm 1 m/s 760 mmHg 75%
02:00 +15°C° 0 mm 2 m/s 760 mmHg 75%
03:00 +14°C° 0 mm 2 m/s 760 mmHg 75%
04:00 +15°C° 0 mm 2 m/s 760 mmHg 71%
05:00 +15°C° 0 mm 2 m/s 760 mmHg 67%
06:00 +14°C° 0 mm 3 m/s 760 mmHg 63%
07:00 +17°C° 0 mm 3 m/s 760 mmHg 60%
08:00 +19°C° 0 mm 3 m/s 760 mmHg 56%
09:00 +21°C° 0 mm 3 m/s 760 mmHg 53%
10:00 +21°C° 0 mm 3 m/s 760 mmHg 56%
11:00 +22°C° 0 mm 4 m/s 760 mmHg 59%
12:00 +22°C° 0 mm 4 m/s 760 mmHg 62%
13:00 +23°C° 0 mm 4 m/s 760 mmHg 60%
14:00 +23°C° 0 mm 4 m/s 760 mmHg 57%
15:00 +23°C° 0 mm 4 m/s 760 mmHg 55%
16:00 +23°C° 0 mm 4 m/s 760 mmHg 56%
17:00 +24°C° 0 mm 3 m/s 760 mmHg 56%
18:00 +24°C° 0 mm 3 m/s 760 mmHg 57%
19:00 +21°C° 0 mm 3 m/s 760 mmHg 62%
20:00 +19°C° 0 mm 2 m/s 760 mmHg 67%
21:00 +18°C° 0 mm 2 m/s 761 mmHg 72%
22:00 +17°C° 0 mm 2 m/s 761 mmHg 75%
23:00 +16°C° 0 mm 2 m/s 761 mmHg 78%

9 Iulie, Joi

Timp Temperatura Precipitaţii Vânt Presiune Umiditate
00:00 +15°C° 0 mm 1 m/s 761 mmHg 80%
01:00 +15°C° 0 mm 1 m/s 761 mmHg 81%
02:00 +15°C° 0 mm 1 m/s 761 mmHg 82%
03:00 +14°C° 0 mm 1 m/s 761 mmHg 83%
04:00 +15°C° 0 mm 1 m/s 761 mmHg 80%
05:00 +16°C° 0 mm 1 m/s 761 mmHg 78%
06:00 +16°C° 0 mm 1 m/s 761 mmHg 75%
07:00 +19°C° 0 mm 1 m/s 761 mmHg 68%
08:00 +19°C° 0 mm 0 m/s 761 mmHg 60%
09:00 +22°C° 0 mm 0 m/s 761 mmHg 52%
10:00 +23°C° 0 mm 0 m/s 761 mmHg 48%
11:00 +25°C° 0 mm 0 m/s 760 mmHg 43%
12:00 +26°C° 0 mm 0 m/s 760 mmHg 39%
13:00 +29°C° 0 mm 1 m/s 760 mmHg 38%
14:00 +29°C° 0 mm 1 m/s 759 mmHg 36%
15:00 +30°C° 0 mm 1 m/s 759 mmHg 35%
16:00 +29°C° 0 mm 1 m/s 759 mmHg 39%
17:00 +29°C° 0 mm 1 m/s 758 mmHg 43%
18:00 +28°C° 0 mm 2 m/s 758 mmHg 47%
19:00 +26°C° 0 mm 2 m/s 758 mmHg 52%
20:00 +25°C° 0 mm 2 m/s 758 mmHg 56%
21:00 +23°C° 0 mm 2 m/s 758 mmHg 61%
22:00 +21°C° 0 mm 2 m/s 758 mmHg 64%
23:00 +20°C° 0 mm 2 m/s 757 mmHg 68%

10 Iulie, Vineri

Timp Temperatura Precipitaţii Vânt Presiune Umiditate
00:00 +20°C° 0 mm 2 m/s 757 mmHg 72%
01:00 +19°C° 0 mm 2 m/s 757 mmHg 75%
02:00 +18°C° 0 mm 2 m/s 756 mmHg 79%
03:00 +17°C° 0 mm 2 m/s 756 mmHg 82%
04:00 +17°C° 0 mm 2 m/s 756 mmHg 82%
05:00 +18°C° 0 mm 2 m/s 756 mmHg 82%
06:00 +18°C° 0 mm 3 m/s 756 mmHg 81%
07:00 +18°C° 0 mm 3 m/s 756 mmHg 78%
08:00 +19°C° 0 mm 3 m/s 757 mmHg 75%
09:00 +19°C° 0 mm 4 m/s 757 mmHg 71%
10:00 +20°C° 0 mm 4 m/s 757 mmHg 66%
11:00 +21°C° 0 mm 4 m/s 757 mmHg 61%
12:00 +21°C° 0 mm 5 m/s 758 mmHg 56%
13:00 +21°C° 0 mm 5 m/s 758 mmHg 53%
14:00 +22°C° 0 mm 5 m/s 758 mmHg 50%
15:00 +22°C° 0 mm 5 m/s 758 mmHg 46%
16:00 +21°C° 0 mm 5 m/s 758 mmHg 48%
17:00 +20°C° 0 mm 5 m/s 759 mmHg 50%
18:00 +19°C° 0 mm 5 m/s 759 mmHg 52%
19:00 +18°C° 0 mm 4 m/s 759 mmHg 58%
20:00 +15°C° 0 mm 4 m/s 760 mmHg 64%
21:00 +13°C° 0 mm 3 m/s 760 mmHg 71%
22:00 +13°C° 0 mm 3 m/s 761 mmHg 73%
23:00 +13°C° 0 mm 2 m/s 761 mmHg 75%
Arată mai mult